| time (UTC) | temp C | wind direction | speed KPH | gust KPH | rain 1hr cm | rain 24hr cm | rain mn cm | humidity % | barometer mb |
| 20260507202524 | 11 | 198 | 4.8 | 14.5 | 0.00 | 0.00 | 0.00 | 99 | 1016.9 |
| 20260507201524 | 11 | 199 | 4.8 | 11.3 | 0.00 | 0.00 | 0.00 | 99 | 1016.9 |
| 20260507200524 | 11 | 203 | 3.2 | 6.4 | 0.00 | 0.00 | 0.00 | 99 | 1017.0 |
| 20260507195524 | 11 | 210 | 4.8 | 11.3 | 0.00 | 0.00 | 0.00 | 99 | 1017.1 |
| 20260507194524 | 11 | 190 | 4.8 | 11.3 | 0.00 | 0.00 | 0.00 | 99 | 1017.1 |
| 20260507193605 | 11 | 172 | 4.8 | 11.3 | 0.00 | 0.00 | 0.00 | 99 | 1017.1 |
| 20260507192524 | 11 | 182 | 4.8 | 11.3 | 0.00 | 0.00 | 0.00 | 99 | 1017.1 |
| 20260507191548 | 11 | 210 | 4.8 | 11.3 | 0.00 | 0.00 | 0.00 | 99 | 1017.1 |
| 20260507190524 | 11 | 192 | 3.2 | 11.3 | 0.00 | 0.00 | 0.00 | 99 | 1017.0 |
| 20260507185524 | 11 | 194 | 1.6 | 6.4 | 0.00 | 0.00 | 0.00 | 99 | 1017.0 |
| 20260507184536 | 11 | 187 | 3.2 | 6.4 | 0.00 | 0.00 | 0.00 | 99 | 1017.0 |
| 20260507183524 | 11 | 198 | 1.6 | 6.4 | 0.00 | 0.00 | 0.00 | 99 | 1016.9 |
| 20260507182537 | 11 | 161 | 3.2 | 6.4 | 0.00 | 0.00 | 0.00 | 98 | 1016.8 |
| 20260507181544 | 11 | 167 | 3.2 | 6.4 | 0.00 | 0.00 | 0.00 | 98 | 1016.7 |
| 20260507180537 | 11 | 178 | 3.2 | 6.4 | 0.00 | 0.00 | 0.00 | 98 | 1016.8 |
| 20260507175549 | 11 | 176 | 3.2 | 11.3 | 0.00 | 0.00 | 0.00 | 97 | 1016.8 |
| 20260507174524 | 11 | 199 | 3.2 | 6.4 | 0.00 | 0.00 | 0.00 | 97 | 1016.7 |
| 20260507173524 | 11 | 221 | 4.8 | 6.4 | 0.00 | 0.00 | 0.00 | 97 | 1016.7 |
| 20260507172524 | 11 | 158 | 3.2 | 11.3 | 0.00 | 0.00 | 0.00 | 97 | 1016.6 |
| 20260507171524 | 11 | 150 | 3.2 | 11.3 | 0.00 | 0.00 | 0.00 | 97 | 1016.6 |
| 20260507170524 | 11 | 197 | 3.2 | 6.4 | 0.00 | 0.00 | 0.00 | 97 | 1016.7 |
| 20260507165536 | 11 | 168 | 4.8 | 11.3 | 0.00 | 0.00 | 0.00 | 96 | 1016.6 |
| 20260507164524 | 11 | 192 | 4.8 | 11.3 | 0.00 | 0.00 | 0.00 | 95 | 1016.7 |
| 20260507163524 | 11 | 204 | 3.2 | 11.3 | 0.00 | 0.00 | 0.00 | 95 | 1016.8 |
| 20260507162524 | 11 | 210 | 3.2 | 6.4 | 0.00 | 0.00 | 0.00 | 95 | 1016.8 |
| 20260507161524 | 12 | 174 | 3.2 | 6.4 | 0.00 | 0.00 | 0.00 | 94 | 1016.8 |
| 20260507160524 | 11 | 131 | 4.8 | 14.5 | 0.00 | 0.00 | 0.00 | 94 | 1016.9 |
| 20260507155624 | 12 | 180 | 4.8 | 11.3 | 0.00 | 0.00 | 0.00 | 94 | 1016.9 |
| 20260507154524 | 12 | 145 | 3.2 | 14.5 | 0.00 | 0.00 | 0.00 | 93 | 1016.9 |
| 20260507153524 | 12 | 167 | 4.8 | 11.3 | 0.00 | 0.00 | 0.00 | 94 | 1016.9 |
| 20260507152607 | 12 | 132 | 6.4 | 11.3 | 0.00 | 0.00 | 0.00 | 93 | 1017.0 |
| 20260507151620 | 12 | 131 | 6.4 | 11.3 | 0.00 | 0.00 | 0.00 | 92 | 1017.0 |
| 20260507150544 | 12 | 134 | 9.7 | 17.7 | 0.00 | 0.00 | 0.00 | 92 | 1017.0 |
| 20260507145524 | 12 | 139 | 9.7 | 17.7 | 0.00 | 0.00 | 0.00 | 92 | 1017.1 |
| 20260507144524 | 12 | 127 | 9.7 | 14.5 | 0.00 | 0.00 | 0.00 | 91 | 1017.2 |
| 20260507143524 | 12 | 133 | 4.8 | 11.3 | 0.00 | 0.00 | 0.00 | 92 | 1017.3 |
| 20260507142548 | 12 | 135 | 8.0 | 14.5 | 0.00 | 0.00 | 0.00 | 92 | 1017.3 |
| 20260507141524 | 12 | 134 | 8.0 | 14.5 | 0.00 | 0.00 | 0.00 | 92 | 1017.3 |
| 20260507140524 | 12 | 149 | 8.0 | 14.5 | 0.00 | 0.00 | 0.00 | 92 | 1017.4 |
| 20260507135524 | 12 | 148 | 6.4 | 14.5 | 0.00 | 0.00 | 0.00 | 91 | 1017.4 |
| 20260507134524 | 12 | 134 | 9.7 | 17.7 | 0.00 | 0.00 | 0.00 | 90 | 1017.4 |
| 20260507133524 | 12 | 149 | 9.7 | 24.1 | 0.00 | 0.00 | 0.00 | 88 | 1017.4 |
| 20260507132536 | 12 | 138 | 9.7 | 14.5 | 0.00 | 0.00 | 0.00 | 89 | 1017.4 |
| 20260507131600 | 13 | 148 | 8.0 | 14.5 | 0.00 | 0.00 | 0.00 | 86 | 1017.5 |
| 20260507130524 | 13 | 217 | 6.4 | 17.7 | 0.00 | 0.00 | 0.00 | 86 | 1017.5 |
| 20260507125524 | 12 | 168 | 6.4 | 14.5 | 0.00 | 0.00 | 0.00 | 87 | 1017.6 |
| 20260507124524 | 12 | 186 | 6.4 | 14.5 | 0.00 | 0.00 | 0.00 | 88 | 1017.6 |
| 20260507123524 | 12 | 141 | 11.3 | 17.7 | 0.00 | 0.00 | 0.00 | 88 | 1017.7 |
| 20260507122524 | 12 | 132 | 11.3 | 17.7 | 0.00 | 0.00 | 0.00 | 87 | 1017.8 |
| 20260507121524 | 12 | 129 | 9.7 | 14.5 | 0.00 | 0.00 | 0.00 | 87 | 1017.9 |
| 20260507120548 | 12 | 138 | 9.7 | 17.7 | 0.00 | 0.00 | 0.00 | 87 | 1018.0 |
| 20260507115524 | 12 | 128 | 9.7 | 17.7 | 0.00 | 0.00 | 0.00 | 86 | 1018.1 |
| 20260507114525 | 12 | 168 | 6.4 | 14.5 | 0.00 | 0.00 | 0.00 | 88 | 1018.1 |
| 20260507113537 | 12 | 138 | 9.7 | 17.7 | 0.00 | 0.00 | 0.00 | 87 | 1018.1 |
| 20260507112524 | 13 | 206 | 8.0 | 14.5 | 0.00 | 0.00 | 0.00 | 85 | 1018.1 |
| 20260507111608 | 12 | 130 | 9.7 | 14.5 | 0.00 | 0.00 | 0.00 | 88 | 1018.1 |
| 20260507110536 | 12 | 145 | 9.7 | 24.1 | 0.00 | 0.00 | 0.00 | 86 | 1018.1 |
| 20260507105544 | 12 | 137 | 9.7 | 17.7 | 0.00 | 0.00 | 0.00 | 87 | 1018.1 |
| 20260507104524 | 12 | 128 | 9.7 | 17.7 | 0.00 | 0.00 | 0.00 | 87 | 1018.1 |
| 20260507103524 | 12 | 130 | 11.3 | 27.4 | 0.00 | 0.00 | 0.00 | 87 | 1018.2 |
| 20260507102544 | 12 | 177 | 8.0 | 17.7 | 0.00 | 0.00 | 0.00 | 87 | 1018.2 |
| 20260507101545 | 12 | 133 | 9.7 | 17.7 | 0.00 | 0.00 | 0.00 | 87 | 1018.2 |
| 20260507100557 | 12 | 179 | 8.0 | 17.7 | 0.00 | 0.00 | 0.00 | 87 | 1018.2 |
| 20260507095524 | 12 | 155 | 8.0 | 14.5 | 0.00 | 0.00 | 0.00 | 88 | 1018.2 |
| 20260507094524 | 12 | 138 | 9.7 | 17.7 | 0.00 | 0.00 | 0.00 | 88 | 1018.2 |
| 20260507093525 | 12 | 150 | 6.4 | 17.7 | 0.00 | 0.00 | 0.00 | 87 | 1018.2 |
| 20260507092524 | 12 | 160 | 8.0 | 17.7 | 0.00 | 0.00 | 0.00 | 88 | 1018.1 |
| 20260507091524 | 12 | 121 | 9.7 | 14.5 | 0.00 | 0.00 | 0.00 | 89 | 1018.0 |
| 20260507090524 | 12 | 157 | 8.0 | 17.7 | 0.00 | 0.00 | 0.00 | 88 | 1018.1 |
| 20260507085544 | 12 | 135 | 6.4 | 14.5 | 0.00 | 0.00 | 0.00 | 87 | 1018.2 |
| 20260507084524 | 12 | 172 | 8.0 | 14.5 | 0.00 | 0.00 | 0.00 | 88 | 1018.1 |
| 20260507083544 | 12 | 190 | 6.4 | 17.7 | 0.00 | 0.00 | 0.00 | 87 | 1018.1 |
| 20260507082536 | 12 | 167 | 6.4 | 14.5 | 0.00 | 0.00 | 0.00 | 86 | 1018.0 |
| 20260507081537 | 12 | 186 | 8.0 | 14.5 | 0.00 | 0.00 | 0.00 | 86 | 1017.9 |
| 20260507080524 | 11 | 138 | 9.7 | 17.7 | 0.00 | 0.00 | 0.00 | 89 | 1018.0 |
| 20260507075609 | 12 | 145 | 8.0 | 14.5 | 0.00 | 0.00 | 0.00 | 87 | 1018.0 |
| 20260507074524 | 12 | 191 | 8.0 | 14.5 | 0.00 | 0.00 | 0.00 | 87 | 1018.0 |
| 20260507073524 | 12 | 148 | 8.0 | 14.5 | 0.00 | 0.00 | 0.00 | 88 | 1018.0 |
| 20260507072524 | 12 | 187 | 8.0 | 14.5 | 0.00 | 0.00 | 0.00 | 87 | 1018.0 |
| 20260507071524 | 12 | 153 | 8.0 | 17.7 | 0.00 | 0.00 | 0.00 | 89 | 1017.9 |
| 20260507070544 | 12 | 146 | 8.0 | 17.7 | 0.00 | 0.00 | 0.00 | 88 | 1018.0 |
| 20260507065524 | 12 | 194 | 6.4 | 14.5 | 0.00 | 0.00 | 0.00 | 89 | 1018.0 |
| 20260507064525 | 12 | 180 | 8.0 | 14.5 | 0.00 | 0.00 | 0.00 | 88 | 1018.0 |
| 20260507063536 | 12 | 191 | 8.0 | 17.7 | 0.00 | 0.00 | 0.00 | 86 | 1018.0 |
| 20260507062536 | 12 | 194 | 8.0 | 14.5 | 0.00 | 0.00 | 0.00 | 86 | 1018.0 |
| 20260507061545 | 12 | 181 | 6.4 | 14.5 | 0.00 | 0.00 | 0.00 | 85 | 1017.9 |
| 20260507060536 | 12 | 197 | 8.0 | 14.5 | 0.00 | 0.00 | 0.00 | 86 | 1017.8 |
| 20260507055525 | 12 | 186 | 8.0 | 14.5 | 0.00 | 0.00 | 0.00 | 86 | 1017.7 |
| 20260507054525 | 12 | 202 | 8.0 | 14.5 | 0.00 | 0.00 | 0.00 | 86 | 1017.6 |
| 20260507053556 | 12 | 180 | 6.4 | 14.5 | 0.00 | 0.00 | 0.00 | 86 | 1017.6 |
| 20260507052544 | 12 | 202 | 8.0 | 17.7 | 0.00 | 0.00 | 0.00 | 85 | 1017.5 |
| 20260507051537 | 12 | 187 | 6.4 | 14.5 | 0.00 | 0.00 | 0.00 | 88 | 1017.4 |
| 20260507050616 | 12 | 183 | 6.4 | 11.3 | 0.00 | 0.00 | 0.00 | 87 | 1017.4 |
| 20260507045525 | 11 | 197 | 6.4 | 14.5 | 0.00 | 0.00 | 0.00 | 88 | 1017.4 |
| 20260507044524 | 11 | 180 | 6.4 | 14.5 | 0.00 | 0.00 | 0.00 | 89 | 1017.2 |
| 20260507043524 | 11 | 192 | 4.8 | 11.3 | 0.00 | 0.00 | 0.00 | 91 | 1017.1 |
| 20260507042544 | 10 | 157 | 6.4 | 11.3 | 0.00 | 0.00 | 0.00 | 91 | 1017.1 |
| 20260507041645 | 10 | 192 | 6.4 | 11.3 | 0.00 | 0.00 | 0.00 | 91 | 1016.9 |
| 20260507040524 | 10 | 193 | 6.4 | 14.5 | 0.00 | 0.00 | 0.00 | 92 | 1016.9 |
| 20260507035536 | 10 | 157 | 4.8 | 11.3 | 0.00 | 0.00 | 0.00 | 92 | 1017.0 |
| 20260507034524 | 10 | 192 | 4.8 | 11.3 | 0.00 | 0.00 | 0.00 | 92 | 1017.0 |
| 20260507033524 | 10 | 190 | 4.8 | 11.3 | 0.00 | 0.00 | 0.00 | 92 | 1016.8 |
| 20260507032524 | 10 | 192 | 6.4 | 14.5 | 0.00 | 0.00 | 0.00 | 93 | 1016.8 |
| 20260507031524 | 10 | 187 | 6.4 | 11.3 | 0.00 | 0.00 | 0.00 | 93 | 1016.7 |
| 20260507030524 | 10 | 189 | 6.4 | 14.5 | 0.00 | 0.00 | 0.00 | 94 | 1016.7 |
| 20260507025524 | 10 | 195 | 4.8 | 11.3 | 0.00 | 0.00 | 0.00 | 95 | 1016.7 |
| 20260507024536 | 10 | 200 | 8.0 | 11.3 | 0.00 | 0.00 | 0.00 | 95 | 1016.7 |
| 20260507023545 | 10 | 203 | 6.4 | 14.5 | 0.00 | 0.00 | 0.00 | 95 | 1016.6 |
| 20260507022525 | 10 | 167 | 4.8 | 11.3 | 0.00 | 0.00 | 0.00 | 96 | 1016.5 |
| 20260507021549 | 10 | 204 | 4.8 | 11.3 | 0.00 | 0.00 | 0.00 | 96 | 1016.5 |
| 20260507020544 | 10 | 201 | 3.2 | 11.3 | 0.00 | 0.00 | 0.00 | 96 | 1016.5 |
| 20260507015544 | 10 | 193 | 4.8 | 11.3 | 0.00 | 0.00 | 0.00 | 95 | 1016.5 |
| 20260507014524 | 10 | 196 | 3.2 | 11.3 | 0.00 | 0.00 | 0.00 | 95 | 1016.5 |
| 20260507013524 | 10 | 205 | 3.2 | 6.4 | 0.00 | 0.00 | 0.00 | 94 | 1016.3 |
| 20260507012524 | 10 | 187 | 3.2 | 11.3 | 0.00 | 0.00 | 0.00 | 94 | 1016.4 |
| 20260507011524 | 10 | 201 | 6.4 | 14.5 | 0.00 | 0.00 | 0.00 | 94 | 1016.4 |
| 20260507010536 | 10 | 183 | 8.0 | 11.3 | 0.00 | 0.00 | 0.00 | 95 | 1016.4 |
| 20260507005524 | 10 | 207 | 4.8 | 11.3 | 0.00 | 0.00 | 0.00 | 95 | 1016.3 |
| 20260507004524 | 10 | 207 | 3.2 | 11.3 | 0.00 | 0.00 | 0.00 | 95 | 1016.3 |
| 20260507003524 | 10 | 201 | 6.4 | 11.3 | 0.00 | 0.00 | 0.00 | 96 | 1016.3 |
| 20260507002524 | 10 | 176 | 3.2 | 6.4 | 0.00 | 0.00 | 0.00 | 96 | 1016.3 |
| 20260507001536 | 10 | 200 | 3.2 | 6.4 | 0.00 | 0.00 | 0.00 | 96 | 1016.3 |
| 20260507000524 | 10 | 188 | 6.4 | 11.3 | 0.00 | 0.00 | 0.00 | 95 | 1016.3 |
| 20260506235536 | 10 | 185 | 6.4 | 11.3 | 0.00 | 0.00 | 0.00 | 95 | 1016.3 |
| 20260506234524 | 10 | 188 | 3.2 | 6.4 | 0.00 | 0.00 | 0.00 | 94 | 1016.3 |
| 20260506233536 | 10 | 192 | 3.2 | 11.3 | 0.00 | 0.00 | 0.00 | 94 | 1016.4 |
| 20260506232536 | 10 | 174 | 4.8 | 11.3 | 0.00 | 0.00 | 0.00 | 93 | 1016.4 |
| 20260506231525 | 10 | 185 | 8.0 | 17.7 | 0.00 | 0.00 | 0.00 | 94 | 1016.5 |
| 20260506230524 | 10 | 202 | 8.0 | 14.5 | 0.00 | 0.00 | 0.00 | 94 | 1016.6 |
| 20260506225525 | 10 | 198 | 8.0 | 14.5 | 0.00 | 0.00 | 0.00 | 93 | 1016.6 |
| 20260506224524 | 10 | 200 | 9.7 | 14.5 | 0.00 | 0.00 | 0.00 | 93 | 1016.7 |
| 20260506223536 | 10 | 196 | 4.8 | 14.5 | 0.00 | 0.00 | 0.00 | 93 | 1016.7 |
| 20260506222525 | 10 | 192 | 8.0 | 14.5 | 0.00 | 0.00 | 0.00 | 93 | 1016.7 |
| 20260506221524 | 10 | 194 | 6.4 | 17.7 | 0.00 | 0.00 | 0.00 | 93 | 1016.8 |
| 20260506220524 | 10 | 206 | 4.8 | 6.4 | 0.00 | 0.00 | 0.00 | 93 | 1016.9 |
| 20260506215525 | 10 | 184 | 4.8 | 11.3 | 0.00 | 0.00 | 0.00 | 93 | 1016.8 |
| 20260506214545 | 10 | 162 | 3.2 | 11.3 | 0.00 | 0.00 | 0.00 | 93 | 1016.9 |
| 20260506213524 | 10 | 186 | 4.8 | 6.4 | 0.00 | 0.00 | 0.00 | 94 | 1016.8 |
| 20260506212556 | 10 | 191 | 3.2 | 6.4 | 0.00 | 0.00 | 0.00 | 94 | 1016.8 |
| 20260506211536 | 10 | 172 | 4.8 | 11.3 | 0.00 | 0.00 | 0.00 | 94 | 1016.7 |
| 20260506210525 | 10 | 173 | 6.4 | 14.5 | 0.00 | 0.00 | 0.00 | 93 | 1016.7 |
| 20260506205537 | 10 | 194 | 8.0 | 14.5 | 0.00 | 0.00 | 0.00 | 94 | 1016.7 |
| 20260506204524 | 10 | 185 | 6.4 | 14.5 | 0.00 | 0.00 | 0.00 | 94 | 1016.7 |
| 20260506203545 | 10 | 181 | 8.0 | 11.3 | 0.00 | 0.00 | 0.00 | 94 | 1016.8 |